Content
SEND FEEDBACK

Daily
Averages
Monthly
Summary
United States of America

CAPUTA, SOUTH DAKOTA


Home > North America > United States > South Dakota
Elevation: 3149 feet     Latitude: 44 03N     Longitude: 103 04W

WEATHER
 
SELECT A DAY
Number of Records: 200,306;   Date Range: 1/1/95 - 7/26/14
 
SHARE

PRINT THIS DATA

[ ← Previous Day ]
WEATHER ALMANAC - FEBRUARY 13, 2013
[ Next Day → ]
[ °C ]   °F
Weather ElementAverageHighLow
Temperature37.4 °F48.9 °F (12:52 pm)28 °F (2:52 am)
Dewpoint22.5 °F27 °F (1:52 pm)18 °F (2:52 am)
Humidity56.5 %78 % (7:52 pm)33 % (12:52 pm)
Barometer29.86 in29.99 in (11:52 pm)29.77 in (12:52 pm)
Wind Speed16.2 mph31.1 mph (10:52 am)
Wind Gust39.1 mph (10:52 am)
Weather ElementAverage
Visibility10 mi
Wind DirectionWNW (298.7 °)

Weather ElementTotal
Precipitation---
Heating Degree Days26.6 (Base 65)
Averaged from 23 records on February 13, 2013
WEATHER CONDITIONS BREAKOUT
WIND DIRECTION BREAKOUT
WEATHER BY HOUR - FEBRUARY 13, 2013
[ °C ]   °F
Local TimeTemperatureDewpointHumidityBarometerVisibilityWind DirectionWind SpeedGust SpeedPrecipitationEventsConditions
1:52 AM30.0 °F19.0 °F64 %29.89 in10.0 miWNW (290°)6.9 mphClear
2:52 AM28.0 °F18.0 °F66 %29.87 in10.0 miWest (280°)5.8 mphClear
3:52 AM28.0 °F18.0 °F66 %29.86 in10.0 miSW (230°)3.5 mphClear
4:52 AM28.9 °F19.0 °F67 %29.86 in10.0 miWSW (240°)3.5 mphClear
5:52 AM28.9 °F19.9 °F69 %29.84 in10.0 miSW (220°)5.8 mphClear
6:52 AM32.0 °F21.0 °F64 %29.83 in10.0 miWSW (250°)3.5 mphOvercast
7:52 AM34.0 °F23.0 °F64 %29.83 in10.0 miWest (260°)3.5 mphOvercast
8:52 AM42.1 °F24.1 °F49 %29.81 in10.0 miWNW (290°)9.2 mphOvercast
9:52 AM46.0 °F21.9 °F39 %29.79 in10.0 miNNW (330°)27.6 mph35.7 mphMostly Cloudy
10:52 AM48.0 °F21.9 °F36 %29.78 in10.0 miNNW (330°)31.1 mph39.1 mphScattered Clouds
11:52 AM48.0 °F24.1 °F39 %29.78 in10.0 miNW (320°)29.9 mph35.7 mphOvercast
12:52 PM48.9 °F21.0 °F33 %29.77 in10.0 miNW (310°)26.5 mph39.1 mphPartly Cloudy
1:52 PM48.0 °F27.0 °F44 %29.78 in10.0 miNW (310°)31.1 mph39.1 mphPartly Cloudy
2:52 PM44.1 °F26.1 °F49 %29.82 in10.0 miNW (320°)20.7 mph29.9 mphPartly Cloudy
3:52 PM43.0 °F24.1 °F47 %29.84 in10.0 miNW (320°)25.3 mph31.1 mphMostly Cloudy
4:52 PM41.0 °F24.1 °F51 %29.87 in10.0 miNW (310°)21.9 mph32.2 mphClear
5:52 PM37.9 °F25.0 °F60 %29.90 in10.0 miNW (320°)13.8 mphMostly Cloudy
6:52 PM34.0 °F27.0 °F75 %29.94 in10.0 miNorth (360°)19.6 mph32.2 mphMostly Cloudy
7:52 PM33.1 °F27.0 °F78 %29.94 in10.0 miNW (310°)10.4 mphClear
8:52 PM37.0 °F25.0 °F62 %29.94 in10.0 miNW (320°)18.4 mph25.3 mphClear
9:52 PM36.0 °F21.9 °F57 %29.94 in10.0 miNW (320°)25.3 mph32.2 mphClear
10:52 PM32.0 °F21.0 °F64 %29.98 in10.0 miNW (320°)12.7 mphClear
11:52 PM32.0 °F18.0 °F56 %29.99 in10.0 miNW (310°)17.3 mphClear
Hourly data recorded from KRAP, located miles away from Caputa, South Dakota







STORIES FROM OUR PARTNERS